EW8485 Weather Reports


Display with metric or nautical units.
time (UTC)temp
F
wind
direction
speed
MPH
gust
MPH
rain 1hr
in
rain 24hr
in
rain mn
in
humidity
%
barometer
mb
20260903013445 86 108 2.0 10.0 0.00 0.00 0.00 78 1008.4
20260903012944 86 181 2.0 10.0 0.00 0.00 0.00 77 1008.5
20260903012716 86 140 2.0 11.0 0.00 0.00 0.00 76 1008.4
20260903011944 86 166 2.0 11.0 0.00 0.00 0.00 76 1008.5
20260903011438 86 149 2.0 9.0 0.00 0.00 0.00 76 1008.5
20260903011208 86 238 2.0 9.0 0.00 0.00 0.00 75 1008.4
20260903010435 87 108 2.0 7.0 0.00 0.00 0.00 75 1008.5
20260903005932 87 124 2.0 8.0 0.00 0.00 0.00 74 1008.4
20260903005432 87 136 2.0 10.0 0.00 0.00 0.00 73 1008.3
20260903004930 87 162 2.0 10.0 0.00 0.00 0.00 72 1008.4
20260903004429 87 107 2.0 6.0 0.00 0.00 0.00 72 1008.4
20260903004158 88 84 1.0 6.0 0.00 0.00 0.00 71 1008.3
20260903003428 88 114 1.0 6.0 0.00 0.00 0.00 71 1008.3
20260903002927 88 151 1.0 6.0 0.00 0.00 0.00 70 1008.1
20260903002426 89 90 1.0 7.0 0.00 0.00 0.00 69 1008.0
20260903001919 89 115 2.0 7.0 0.00 0.00 0.00 69 1007.8
20260903001421 89 204 2.0 10.0 0.00 0.00 0.00 68 1007.6
20260903000920 89 151 2.0 10.0 0.00 0.00 0.00 68 1007.6
20260903000649 89 163 2.0 8.0 0.00 0.00 0.00 67 1007.5
20260902235919 90 331 2.0 10.0 0.00 0.00 0.00 67 1007.6
20260902235417 90 151 2.0 10.0 0.00 0.00 0.00 66 1007.6
20260902235149 90 114 3.0 8.0 0.00 0.00 0.00 65 1007.6
20260902234642 91 237 2.0 8.0 0.00 0.00 0.00 64 1007.6
20260902233912 91 149 2.0 8.0 0.00 0.00 0.00 63 1007.7
20260902233412 91 122 2.0 7.0 0.00 0.00 0.00 62 1007.7
20260902232913 91 129 1.0 7.0 0.00 0.00 0.00 61 1007.6
20260902232644 92 173 2.0 8.0 0.00 0.00 0.00 61 1007.6
20260902231912 92 234 2.0 8.0 0.00 0.00 0.00 60 1007.6
20260902231407 92 158 2.0 8.0 0.00 0.00 0.00 60 1007.6
20260902230908 92 143 3.0 11.0 0.00 0.00 0.00 60 1007.6
20260902230405 92 103 3.0 11.0 0.00 0.00 0.00 60 1007.6
20260902225909 92 153 3.0 11.0 0.00 0.00 0.00 60 1007.6
20260902225406 93 70 3.0 11.0 0.00 0.00 0.00 61 1007.7
20260902224907 93 133 3.0 8.0 0.00 0.00 0.00 60 1007.6
20260902224400 93 186 2.0 8.0 0.00 0.00 0.00 60 1007.5
20260902223900 94 187 3.0 7.0 0.00 0.00 0.00 60 1007.5
20260902223359 94 216 2.0 7.0 0.00 0.00 0.00 60 1007.4
20260902222905 94 96 2.0 7.0 0.00 0.00 0.00 59 1007.5
20260902222858 94 83 2.0 7.0 0.00 0.00 0.00 60 1007.5
20260902222129 94 205 2.0 6.0 0.00 0.00 0.00 59 1007.4
20260902221351 95 86 2.0 8.0 0.00 0.00 0.00 59 1007.4
20260902220853 95 74 2.0 8.0 0.00 0.00 0.00 59 1007.4
20260902220351 95 107 2.0 12.0 0.00 0.00 0.00 58 1007.4
20260902215852 96 210 2.0 12.0 0.00 0.00 0.00 57 1007.5
20260902215622 96 115 2.0 9.0 0.00 0.00 0.00 57 1007.5
20260902214851 96 187 2.0 6.0 0.00 0.00 0.00 58 1007.5
20260902214350 96 133 1.0 6.0 0.00 0.00 0.00 56 1007.5
20260902213844 97 326 1.0 4.0 0.00 0.00 0.00 57 1007.6
20260902213339 97 134 2.0 7.0 0.00 0.00 0.00 56 1007.6
20260902212839 97 160 3.0 11.0 0.00 0.00 0.00 56 1007.6
20260902212612 97 108 3.0 11.0 0.00 0.00 0.00 57 1007.7
20260902211837 98 89 2.0 5.0 0.00 0.00 0.00 55 1007.7
20260902211608 98 82 2.0 9.0 0.00 0.00 0.00 56 1007.8
20260902210837 97 92 2.0 9.0 0.00 0.00 0.00 57 1007.7
20260902210338 98 141 2.0 9.0 0.00 0.00 0.00 56 1007.8
20260902205835 97 97 2.0 9.0 0.00 0.00 0.00 56 1007.9
20260902205335 97 75 2.0 7.0 0.00 0.00 0.00 56 1007.9
20260902204836 97 64 2.0 7.0 0.00 0.00 0.00 56 1008.0
20260902204335 97 112 2.0 7.0 0.00 0.00 0.00 56 1008.0
20260902203836 97 226 2.0 6.0 0.00 0.00 0.00 56 1008.1
20260902203335 97 108 2.0 6.0 0.00 0.00 0.00 55 1008.2
20260902202836 98 75 1.0 6.0 0.00 0.00 0.00 54 1008.2
20260902202608 98 89 1.0 6.0 0.00 0.00 0.00 54 1008.2
20260902201830 98 117 1.0 3.0 0.00 0.00 0.00 54 1008.2
20260902201332 98 259 1.0 3.0 0.00 0.00 0.00 54 1008.3
20260902201114 98 255 1.0 7.0 0.00 0.00 0.00 56 1008.5
20260902200831 98 114 1.0 5.0 0.00 0.00 0.00 54 1008.4
20260902200331 98 134 1.0 5.0 0.00 0.00 0.00 54 1008.4
20260902195331 97 69 1.0 7.0 0.00 0.00 0.00 55 1008.5
20260902194826 97 202 1.0 4.0 0.00 0.00 0.00 55 1008.6
20260902194328 98 264 2.0 8.0 0.00 0.00 0.00 55 1008.8
20260902193827 97 213 2.0 8.0 0.00 0.00 0.00 57 1008.8
20260902193334 97 113 2.0 9.0 0.00 0.00 0.00 55 1009.0
20260902193327 98 58 1.0 8.0 0.00 0.00 0.00 56 1008.9
20260902192328 97 352 2.0 9.0 0.00 0.00 0.00 55 1009.2
20260902192057 96 217 2.0 5.0 0.00 0.00 0.00 58 1009.2
20260902191323 96 182 3.0 8.0 0.00 0.00 0.00 58 1009.3
20260902190822 95 261 3.0 8.0 0.00 0.00 0.00 59 1009.3
20260902190324 95 231 3.0 8.0 0.00 0.00 0.00 59 1009.3
20260902185824 95 78 3.0 8.0 0.00 0.00 0.00 60 1009.3
20260902185321 95 207 3.0 11.0 0.00 0.00 0.00 61 1009.3
20260902184820 95 237 3.0 11.0 0.00 0.00 0.00 61 1009.4
20260902184320 96 204 2.0 7.0 0.00 0.00 0.00 61 1009.5
20260902183818 95 169 3.0 7.0 0.00 0.00 0.00 61 1009.6
20260902183318 95 272 3.0 10.0 0.00 0.00 0.00 61 1009.7
20260902182819 96 212 2.0 10.0 0.00 0.00 0.00 60 1009.9
20260902182319 95 187 2.0 9.0 0.00 0.00 0.00 61 1009.9
20260902182048 95 37 2.0 8.0 0.00 0.00 0.00 62 1010.0
20260902181317 94 121 4.0 10.0 0.00 0.00 0.00 63 1010.0
20260902180817 94 202 3.0 10.0 0.00 0.00 0.00 63 1010.1
20260902180313 94 256 2.0 10.0 0.00 0.00 0.00 64 1010.2
20260902175814 93 252 3.0 10.0 0.00 0.00 0.00 64 1010.3
20260902175313 93 259 3.0 10.0 0.00 0.00 0.00 65 1010.3
20260902174813 93 219 3.0 10.0 0.00 0.00 0.00 65 1010.5
20260902174314 93 276 2.0 7.0 0.00 0.00 0.00 65 1010.6
20260902173814 92 220 3.0 8.0 0.00 0.00 0.00 66 1010.7
20260902173312 92 217 3.0 10.0 0.00 0.00 0.00 67 1010.8
20260902172808 92 261 3.0 11.0 0.00 0.00 0.00 66 1010.9
20260902172308 91 230 4.0 11.0 0.00 0.00 0.00 69 1011.0
20260902171808 91 213 3.0 11.0 0.00 0.00 0.00 68 1011.0
20260902171307 91 220 4.0 11.0 0.00 0.00 0.00 69 1011.1
20260902170812 91 238 2.0 9.0 0.00 0.00 0.00 71 1011.1
20260902170806 91 258 3.0 10.0 0.00 0.00 0.00 69 1011.1
20260902165806 90 203 3.0 11.0 0.00 0.00 0.00 73 1011.2
20260902165535 89 214 4.0 11.0 0.00 0.00 0.00 73 1011.3
20260902164803 89 262 3.0 10.0 0.00 0.00 0.00 73 1011.3
20260902164302 89 243 3.0 11.0 0.00 0.00 0.00 74 1011.4
20260902163802 89 234 4.0 11.0 0.00 0.00 0.00 74 1011.5
20260902163304 88 247 4.0 9.0 0.00 0.00 0.00 75 1011.5
20260902162804 88 240 3.0 9.0 0.00 0.00 0.00 76 1011.6
20260902162306 88 247 3.0 8.0 0.00 0.00 0.00 77 1011.6
20260902161758 87 272 4.0 10.0 0.00 0.00 0.00 79 1011.6
20260902161300 87 290 4.0 10.0 0.00 0.00 0.00 79 1011.6
20260902160759 87 243 4.0 10.0 0.00 0.00 0.00 79 1011.6
20260902160259 87 258 3.0 9.0 0.00 0.00 0.00 79 1011.7
20260902155758 87 231 3.0 9.0 0.00 0.00 0.00 80 1011.6
20260902155300 87 266 4.0 10.0 0.00 0.00 0.00 80 1011.6
20260902154759 87 310 4.0 12.0 0.00 0.00 0.00 80 1011.6
20260902154255 87 192 4.0 12.0 0.00 0.00 0.00 81 1011.6
20260902153754 86 200 4.0 11.0 0.00 0.00 0.00 82 1011.6
20260902153254 86 212 4.0 11.0 0.00 0.00 0.00 82 1011.5
20260902152754 85 271 4.0 9.0 0.00 0.00 0.00 83 1011.5
20260902152252 85 203 4.0 9.0 0.00 0.00 0.00 84 1011.4
20260902151753 85 235 4.0 9.0 0.00 0.00 0.00 84 1011.4
20260902151252 85 258 3.0 8.0 0.00 0.00 0.00 85 1011.4
20260902150753 85 226 3.0 7.0 0.00 0.00 0.00 85 1011.4
20260902150249 85 259 3.0 9.0 0.00 0.00 0.00 86 1011.3
20260902145749 84 236 3.0 9.0 0.00 0.00 0.00 86 1011.2
20260902145516 84 254 3.0 10.0 0.00 0.00 0.00 86 1011.3
20260902145027 84 260 3.0 10.0 0.00 0.00 0.00 87 1011.2
20260902144515 84 206 3.0 7.0 0.00 0.00 0.00 88 1011.2
20260902143743 83 221 2.0 7.0 0.00 0.00 0.00 88 1011.2
20260902143237 83 259 2.0 9.0 0.00 0.00 0.00 89 1011.2
20260902142735 83 233 2.0 9.0 0.00 0.00 0.00 90 1011.2
20260902142235 83 292 2.0 6.0 0.00 0.00 0.00 91 1011.3
20260902142003 82 248 1.0 5.0 0.00 0.00 0.00 91 1011.3
20260902141849 82 229 1.0 3.0 0.00 0.00 0.00 92 1011.4
20260902141003 82 237 0.0 3.0 0.00 0.00 0.00 93 1011.3
20260902140230 81 238 0.0 2.0 0.00 0.00 0.00 93 1011.4
20260902135730 81 245 0.0 2.0 0.00 0.00 0.00 94 1011.4
20260902135228 81 255 0.0 1.0 0.00 0.00 0.00 94 1011.4
20260902134727 80 255 0.0 2.0 0.00 0.00 0.00 95 1011.4
20260902134226 80 256 0.0 2.0 0.00 0.00 0.00 95 1011.3
20260902133722 80 236 0.0 1.0 0.00 0.00 0.00 96 1011.3
20260902133454 80 236 0.0 1.0 0.00 0.00 0.00 96 1011.2
20260902132718 80 234 0.0 0.0 0.00 0.00 0.00 96 1011.1
20260902132218 79 234 0.0 1.0 0.00 0.00 0.00 97 1011.2
20260902131718 79 234 0.0 1.0 0.00 0.00 0.00 97 1011.1
20260902131218 79 234 0.0 1.0 0.00 0.00 0.00 97 1011.0
20260902130718 79 234 0.0 1.0 0.00 0.00 0.00 97 1011.0
20260902130216 79 233 0.0 1.0 0.00 0.00 0.00 97 1010.9
20260902125712 78 233 0.0 0.0 0.00 0.00 0.00 97 1010.8
20260902125209 78 233 0.0 0.0 0.00 0.00 0.00 97 1010.8
20260902124707 78 233 0.0 2.0 0.00 0.00 0.00 97 1010.7
20260902124437 78 233 0.0 2.0 0.00 0.00 0.00 97 1010.6
20260902123705 78 246 0.0 0.0 0.00 0.00 0.00 97 1010.5
20260902123158 78 246 0.0 0.0 0.00 0.00 0.00 97 1010.3
20260902122711 78 246 0.0 0.0 0.00 0.00 0.00 97 1010.2
20260902122155 78 246 0.0 0.0 0.00 0.00 0.00 96 1010.1
20260902121653 78 246 0.0 0.0 0.00 0.00 0.00 96 1010.1
20260902121153 78 246 0.0 1.0 0.00 0.00 0.00 96 1010.1
20260902120647 78 246 0.0 1.0 0.00 0.00 0.00 97 1010.2
20260902120145 78 246 0.0 1.0 0.00 0.00 0.00 97 1010.2
20260902115644 78 245 0.0 1.0 0.00 0.00 0.00 97 1010.2
20260902115141 78 245 0.0 2.0 0.00 0.00 0.00 97 1010.1
20260902114641 78 245 0.0 2.0 0.00 0.00 0.00 97 1010.0
20260902114411 78 236 0.0 1.0 0.00 0.00 0.00 96 1010.0
20260902113639 78 236 0.0 1.0 0.00 0.00 0.00 96 1010.1
20260902113140 78 236 0.0 0.0 0.00 0.00 0.00 96 1010.0
20260902112637 78 236 0.0 0.0 0.00 0.00 0.00 96 1010.0
20260902112135 78 236 0.0 0.0 0.00 0.00 0.00 96 1009.9
20260902111635 78 236 0.0 0.0 0.00 0.00 0.00 96 1010.0
20260902111132 78 236 0.0 0.0 0.00 0.00 0.00 96 1010.0
20260902110902 78 236 0.0 0.0 0.00 0.00 0.00 96 1010.0
20260902110132 78 236 0.0 0.0 0.00 0.00 0.00 96 1010.0
20260902105902 78 236 0.0 1.0 0.00 0.00 0.00 96 1010.0
20260902105133 78 236 0.0 1.0 0.00 0.00 0.00 96 1010.0
20260902105128 78 236 0.0 1.0 0.00 0.00 0.00 96 1009.9
20260902104123 78 236 0.0 1.0 0.00 0.00 0.00 96 1009.9
20260902103853 78 236 0.0 0.0 0.00 0.00 0.00 95 1009.9
20260902103119 78 237 0.0 0.0 0.00 0.00 0.00 95 1009.8
20260902102617 78 237 0.0 0.0 0.00 0.00 0.00 95 1009.8
20260902102116 78 237 0.0 0.0 0.00 0.00 0.00 95 1009.7
20260902101614 78 237 0.0 1.0 0.00 0.00 0.00 95 1009.8
20260902101609 78 237 0.0 1.0 0.00 0.00 0.00 95 1009.8
20260902100607 78 234 0.0 1.0 0.00 0.00 0.00 95 1009.8
20260902100105 78 234 0.0 0.0 0.00 0.00 0.00 95 1009.7
20260902095605 78 234 0.0 0.0 0.00 0.00 0.00 95 1009.8
20260902095101 78 234 0.0 0.0 0.00 0.00 0.00 95 1009.8
20260902094600 78 234 0.0 0.0 0.00 0.00 0.00 95 1009.8
20260902094058 79 234 0.0 1.0 0.00 0.00 0.00 94 1009.7
20260902093559 79 234 0.0 1.0 0.00 0.00 0.00 94 1009.7
20260902093059 79 234 0.0 1.0 0.00 0.00 0.00 94 1009.8
20260902092559 79 234 0.0 1.0 0.00 0.00 0.00 94 1009.9
20260902092053 79 234 0.0 1.0 0.00 0.00 0.00 94 1009.8
20260902091551 79 234 0.0 1.0 0.00 0.00 0.00 94 1009.7
20260902091319 79 234 0.0 1.0 0.00 0.00 0.00 94 1009.7
20260902090547 79 234 0.0 1.0 0.00 0.00 0.00 94 1009.7
20260902090047 79 234 0.0 1.0 0.00 0.00 0.00 94 1009.7
20260902085540 79 233 0.0 1.0 0.00 0.00 0.00 94 1009.6
20260902085039 79 246 0.0 1.0 0.00 0.00 0.00 93 1009.6
20260902084537 79 247 0.0 1.0 0.00 0.00 0.00 93 1009.6
20260902084035 79 247 0.0 1.0 0.00 0.00 0.00 93 1009.7
20260902083535 79 247 0.0 2.0 0.00 0.00 0.00 93 1009.8
20260902083033 79 247 0.0 2.0 0.00 0.00 0.00 93 1009.8
20260902082531 80 255 0.0 2.0 0.00 0.00 0.00 93 1009.8
20260902082029 80 233 0.0 2.0 0.00 0.00 0.00 93 1009.8
20260902081529 80 156 0.0 3.0 0.00 0.00 0.00 93 1009.8
20260902081259 80 236 0.0 3.0 0.00 0.00 0.00 92 1009.8
20260902080528 80 240 0.0 4.0 0.00 0.00 0.00 92 1009.8
20260902080022 80 214 1.0 4.0 0.00 0.00 0.00 92 1009.8
20260902075753 80 243 0.0 2.0 0.00 0.00 0.00 92 1009.8
20260902075021 80 213 1.0 3.0 0.00 0.00 0.00 92 1009.8
20260902074523 80 254 0.0 3.0 0.00 0.00 0.00 92 1009.8
20260902074023 80 220 0.0 2.0 0.00 0.00 0.00 92 1009.9
20260902073523 80 233 0.0 2.0 0.00 0.00 0.00 92 1009.9
20260902073015 80 233 0.0 2.0 0.00 0.00 0.00 92 1009.9
20260902072515 80 263 1.0 4.0 0.00 0.00 0.00 92 1010.0
20260902072013 80 255 1.0 4.0 0.00 0.00 0.00 92 1010.0
20260902071510 80 233 1.0 4.0 0.00 0.00 0.00 92 1009.9
20260902071010 80 230 1.0 4.0 0.00 0.00 0.00 92 1009.8
20260902070507 80 256 1.0 4.0 0.00 0.00 0.00 92 1009.8
20260902070006 80 245 0.0 3.0 0.00 0.00 0.00 92 1009.9
20260902065733 80 262 0.0 3.0 0.00 0.00 0.00 92 1009.8
20260902065006 80 201 0.0 3.0 0.00 0.00 0.00 92 1009.8
20260902064501 80 229 0.0 2.0 0.00 0.00 0.00 92 1009.8
20260902064231 80 246 0.0 2.0 0.00 0.00 0.00 91 1009.8
20260902063459 80 250 0.0 2.0 0.00 0.00 0.00 91 1009.9
20260902062956 81 176 0.0 2.0 0.00 0.00 0.00 91 1009.9
20260902062727 81 233 0.0 4.0 0.00 0.00 0.00 91 1009.9
20260902062229 81 206 1.0 4.0 0.00 0.00 0.00 91 1009.9
20260902061725 81 260 1.0 4.0 0.00 0.00 0.00 90 1009.9
20260902060955 81 258 0.0 3.0 0.00 0.00 0.00 90 1009.9
20260902060721 81 225 1.0 3.0 0.00 0.00 0.00 90 1009.9
20260902055954 81 238 0.0 3.0 0.00 0.00 0.00 90 1009.9
20260902055947 81 224 1.0 3.0 0.00 0.00 0.00 90 1009.8
20260902055215 81 260 0.0 3.0 0.00 0.00 0.00 89 1009.9
20260902054445 81 224 0.0 3.0 0.00 0.00 0.00 89 1010.0
20260902054214 81 244 0.0 3.0 0.00 0.00 0.00 89 1010.0
20260902053444 81 226 0.0 3.0 0.00 0.00 0.00 89 1010.0
20260902052945 82 229 0.0 3.0 0.00 0.00 0.00 89 1010.0
20260902052440 82 230 0.0 2.0 0.00 0.00 0.00 89 1009.8
20260902051941 82 214 0.0 2.0 0.00 0.00 0.00 88 1010.0
20260902051440 82 240 0.0 2.0 0.00 0.00 0.00 88 1010.0
20260902051217 82 240 0.0 1.0 0.00 0.00 0.00 88 1010.0
20260902050939 82 238 0.0 1.0 0.00 0.00 0.00 88 1010.0
20260902045938 82 240 0.0 1.0 0.00 0.00 0.00 87 1010.0
20260902045436 82 239 0.0 1.0 0.00 0.00 0.00 87 1009.9
20260902045203 82 242 0.0 1.0 0.00 0.00 0.00 87 1009.9
20260902044434 82 229 0.0 1.0 0.00 0.00 0.00 86 1009.9
20260902043934 82 222 0.0 1.0 0.00 0.00 0.00 86 1009.9
20260902043705 82 232 0.0 3.0 0.00 0.00 0.00 86 1010.0
20260902042932 81 204 0.0 3.0 0.00 0.00 0.00 86 1009.9
20260902042430 81 238 0.0 0.0 0.00 0.00 0.00 86 1009.9
20260902041937 81 238 0.0 0.0 0.00 0.00 0.00 85 1010.0
20260902041930 81 238 0.0 0.0 0.00 0.00 0.00 86 1009.9
20260902040928 81 238 0.0 0.0 0.00 0.00 0.00 85 1010.1
20260902040658 82 238 0.0 0.0 0.00 0.00 0.00 85 1010.1
20260902035925 82 238 0.0 0.0 0.00 0.00 0.00 84 1010.1
20260902035424 82 238 0.0 0.0 0.00 0.00 0.00 85 1010.1
20260902034924 82 238 0.0 0.0 0.00 0.00 0.00 84 1010.2
20260902034424 82 238 0.0 0.0 0.00 0.00 0.00 84 1010.2
20260902033922 82 238 0.0 0.0 0.00 0.00 0.00 84 1010.1
20260902033422 82 238 0.0 0.0 0.00 0.00 0.00 83 1010.1
20260902032916 82 238 0.0 0.0 0.00 0.00 0.00 83 1010.1
20260902032646 82 238 0.0 0.0 0.00 0.00 0.00 83 1009.9
20260902031913 82 238 0.0 0.0 0.00 0.00 0.00 83 1009.9
20260902031410 82 238 0.0 0.0 0.00 0.00 0.00 82 1009.9
20260902030910 82 238 0.0 0.0 0.00 0.00 0.00 82 1009.8
20260902030404 82 238 0.0 0.0 0.00 0.00 0.00 81 1009.7
20260902025902 82 238 0.0 0.0 0.00 0.00 0.00 81 1009.6
20260902025400 82 238 0.0 1.0 0.00 0.00 0.00 81 1009.6
20260902024858 83 238 0.0 1.0 0.00 0.00 0.00 80 1009.5
20260902024628 83 238 0.0 1.0 0.00 0.00 0.00 80 1009.5
20260902023852 83 238 0.0 1.0 0.00 0.00 0.00 80 1009.4
20260902023350 83 121 0.0 1.0 0.00 0.00 0.00 80 1009.4
20260902022848 83 121 0.0 0.0 0.00 0.00 0.00 80 1009.4
20260902022347 83 121 0.0 0.0 0.00 0.00 0.00 80 1009.4
20260902022116 83 121 0.0 0.0 0.00 0.00 0.00 80 1009.3
20260902021343 83 121 0.0 0.0 0.00 0.00 0.00 80 1009.1
20260902020841 83 121 0.0 0.0 0.00 0.00 0.00 80 1009.1
20260902020342 83 121 0.0 0.0 0.00 0.00 0.00 80 1008.9
20260902020113 83 121 0.0 0.0 0.00 0.00 0.00 79 1008.9
20260902015340 83 121 0.0 0.0 0.00 0.00 0.00 80 1008.8
20260902014840 83 121 0.0 0.0 0.00 0.00 0.00 80 1008.8
20260902014338 83 121 0.0 0.0 0.00 0.00 0.00 78 1008.7